Location: *
(41.3833°S, 177.8333°W)
Time: 01:06:14
(UTC+00:00)

Cosmos 1975 Rocket - Pass Details

Date: 01 April 2020
Orbit: 603 x 634 km, 82.5° (Epoch: 05 June)

Event Time Altitude Azimuth Distance (km) Brightness Sun altitude
Rises 16:51:28 0° 190° (S) 2,916 6.5 -15.1°
Reaches altitude 10° 16:53:44 10° 192° (SSW) 1,998 5.6 -14.7°
Maximum altitude 16:58:08 74° 276° (W) 645 2.9 -13.9°
Drops below altitude 10° 17:02:27 10° 360° (N) 1,957 5.6 -13.1°
Sets 17:04:39 0° 1° (N) 2,850 6.4 -12.7°
